World > North America > United States > North Carolina

Hourly Index, NC Regional Weather

Feedback E-mail the Weather

Quick WX

Index, NC Weather Maps

°F °C°F °C
Index Weather Map
UTC Time: 6/28/2022, 09:23
Your Time:

Index, NC Regional Weather

Expires:202206281000;;321405
ASUS42 KRAH 280910
RWRRAH
NORTH CAROLINA WEATHER ROUNDUP
NATIONAL WEATHER SERVICE RALEIGH NC
500 AM EDT TUE JUN 28 2022

NOTE: "FAIR" INDICATES FEW OR NO CLOUDS BELOW 12,000 FEET WITH NO
SIGNIFICANT WEATHER AND/OR OBSTRUCTIONS TO VISIBILITY.


NCZ001-053-055-056-065-067-281000-
WESTERN NORTH CAROLINA
  
CITY           SKY/WX    TMP DP  RH WIND       PRES   REMARKS
ASHEVILLE      MOCLDY    64  56  75 N6        30.20R                  
JEFFERSON      PTCLDY    56  49  77 CALM      30.26R                  
MORGANTON      MOCLDY    60  59  96 N3        30.20S                  
HICKORY        CLOUDY    66  58  75 CALM      30.16R                  
WILKESBORO     PTCLDY    55  54  94 CALM      30.24R                  
RUTHERFORDTON  CLOUDY    70  54  56 N7        30.16R                  
MOUNT AIRY     PTCLDY    62  52  70 CALM      30.20R                  
BOONE          PTCLDY    50  50 100 CALM      30.26S                  
$$
 

SKY/WX - Weather  TMP - Temperature  DP - Dew Point  RH - Humidity
WIND - Wind Direction/Speed PRES - Barometric Pressure VSB - Visibility
WCI - Wind Chill Index E13G22 Wind - East Wind 13 mph/Gusts of 22 mph

Trending Headlines

Index Radar Loop



Index Quick Facts


National Two Day Weather Forecast


E-mail the Index Weather Forecast

Voice your opinion or tell us about page issues...